RYR75T GCFV-LPMA

Flight info

Callsign RYR75T
Flight time 1h 0m
Altitude 36000
Route SAMAR DCT NIDUL
Aircraft B738/M-SDE2E3FGHIRWXY/LB1

Departure

Time 2026-05-06 15:05
Airport Fuerteventura Airport (GCFV)

Arrival

Time 2026-05-06 16:05
Airport Cristiano Ronaldo International Airport (LPMA)
Time Latitude Longitude Altitude Speed Heading
2026-05-06 14:27 28.45173 -13.86827 34 ft 0 kts 271°
2026-05-06 14:50 28.45173 -13.86826 34 ft 0 kts 271°
2026-05-06 14:50 28.45172 -13.86811 34 ft 2 kts 275°
2026-05-06 14:50 28.45171 -13.86794 34 ft 2 kts 273°
2026-05-06 14:50 28.45170 -13.86777 34 ft 2 kts 274°
2026-05-06 14:51 28.45169 -13.86760 34 ft 2 kts 274°
2026-05-06 14:51 28.45168 -13.86743 34 ft 2 kts 274°
2026-05-06 14:51 28.45167 -13.86726 34 ft 2 kts 274°
2026-05-06 14:51 28.45166 -13.86708 34 ft 2 kts 274°
2026-05-06 14:52 28.45165 -13.86692 34 ft 2 kts 274°
2026-05-06 14:52 28.45164 -13.86675 34 ft 1 kts 274°
2026-05-06 14:52 28.45163 -13.86669 34 ft 0 kts 273°
2026-05-06 14:57 28.45165 -13.86704 34 ft 6 kts 273°
2026-05-06 14:57 28.45151 -13.86738 34 ft 4 kts 186°
2026-05-06 14:57 28.45104 -13.86739 34 ft 10 kts 181°
2026-05-06 14:58 28.44999 -13.86744 34 ft 19 kts 179°
2026-05-06 14:58 28.44870 -13.86744 34 ft 10 kts 144°
2026-05-06 14:58 28.44855 -13.86668 34 ft 11 kts 92°
2026-05-06 14:58 28.44824 -13.86586 34 ft 11 kts 180°
2026-05-06 14:59 28.44747 -13.86586 34 ft 10 kts 180°
2026-05-06 14:59 28.44653 -13.86588 34 ft 21 kts 181°
2026-05-06 14:59 28.44467 -13.86596 34 ft 27 kts 179°
2026-05-06 14:59 28.44283 -13.86602 34 ft 25 kts 176°
2026-05-06 15:00 28.44111 -13.86606 34 ft 24 kts 181°
2026-05-06 15:00 28.43946 -13.86613 34 ft 23 kts 180°
2026-05-06 15:00 28.43762 -13.86617 34 ft 30 kts 181°
2026-05-06 15:00 28.43616 -13.86623 34 ft 29 kts 183°
2026-05-06 15:01 28.43544 -13.86626 34 ft 29 kts 181°
2026-05-06 15:01 28.43344 -13.86633 34 ft 22 kts 181°
2026-05-06 15:01 28.43289 -13.86635 33 ft 4 kts 178°
2026-05-06 15:01 28.43263 -13.86624 34 ft 3 kts 136°
2026-05-06 15:02 28.43253 -13.86607 34 ft 2 kts 116°
2026-05-06 15:02 28.43245 -13.86565 33 ft 8 kts 94°
2026-05-06 15:02 28.43255 -13.86505 33 ft 7 kts 60°
2026-05-06 15:02 28.43288 -13.86467 33 ft 6 kts 44°
2026-05-06 15:03 28.43321 -13.86443 33 ft 5 kts 15°
2026-05-06 15:03 28.43354 -13.86439 33 ft 4 kts 358°
2026-05-06 15:03 28.43378 -13.86441 33 ft 2 kts 357°
2026-05-06 15:03 28.43380 -13.86441 33 ft 0 kts 357°
2026-05-06 15:04 28.43504 -13.86438 33 ft 49 kts
2026-05-06 15:04 28.44117 -13.86415 34 ft 123 kts
2026-05-06 15:04 28.45185 -13.86362 134 ft 174 kts
2026-05-06 15:05 28.46353 -13.86346 1105 ft 165 kts
2026-05-06 15:05 28.47423 -13.86272 1911 ft 161 kts 21°
2026-05-06 15:05 28.48255 -13.85384 2285 ft 178 kts 66°
2026-05-06 15:05 28.48630 -13.83968 2701 ft 196 kts 63°
2026-05-06 15:06 28.49543 -13.82817 3149 ft 208 kts 24°
2026-05-06 15:06 28.50995 -13.82462 3639 ft 223 kts
2026-05-06 15:06 28.52579 -13.82138 4177 ft 239 kts 16°
2026-05-06 15:06 28.54184 -13.81434 4745 ft 254 kts 23°
2026-05-06 15:07 28.55722 -13.80587 5376 ft 264 kts 25°
2026-05-06 15:07 28.57370 -13.79651 6111 ft 271 kts 24°
2026-05-06 15:07 28.58879 -13.78809 6831 ft 274 kts 24°
2026-05-06 15:08 28.62245 -13.76979 8328 ft 282 kts 23°
2026-05-06 15:08 28.64271 -13.75887 9167 ft 288 kts 22°
2026-05-06 15:08 28.66270 -13.74809 9973 ft 293 kts 22°
2026-05-06 15:08 28.68138 -13.73802 10586 ft 303 kts 22°
2026-05-06 15:09 28.70075 -13.72770 10974 ft 318 kts 21°
2026-05-06 15:09 28.72136 -13.71713 11384 ft 333 kts 21°
2026-05-06 15:09 28.74323 -13.70608 11735 ft 350 kts 20°
2026-05-06 15:09 28.76588 -13.69463 12110 ft 365 kts 20°
2026-05-06 15:10 28.78962 -13.68259 12543 ft 377 kts 21°
2026-05-06 15:10 28.81349 -13.67043 13198 ft 382 kts 21°
2026-05-06 15:10 28.83786 -13.65797 13830 ft 388 kts 21°
2026-05-06 15:10 28.86214 -13.64556 14496 ft 391 kts 21°
2026-05-06 15:11 28.88717 -13.63276 15137 ft 396 kts 21°
2026-05-06 15:11 28.91248 -13.62049 15785 ft 398 kts 17°
2026-05-06 15:11 28.93917 -13.61183 16341 ft 399 kts
2026-05-06 15:11 28.96677 -13.61123 16948 ft 397 kts 349°
2026-05-06 15:12 28.99390 -13.61818 17573 ft 396 kts 339°
2026-05-06 15:12 29.02061 -13.62808 18124 ft 400 kts 337°
2026-05-06 15:12 29.04678 -13.63855 18722 ft 403 kts 337°
2026-05-06 15:12 29.07246 -13.64903 19293 ft 407 kts 337°
2026-05-06 15:13 29.09919 -13.65985 19957 ft 408 kts 337°
2026-05-06 15:13 29.12518 -13.67027 20484 ft 413 kts 337°
2026-05-06 15:13 29.15133 -13.68067 21047 ft 416 kts 337°
2026-05-06 15:13 29.17789 -13.69117 21579 ft 418 kts 337°
2026-05-06 15:14 29.20540 -13.70202 22108 ft 421 kts 337°
2026-05-06 15:14 29.23339 -13.71305 22615 ft 425 kts 337°
2026-05-06 15:14 29.26121 -13.72400 23043 ft 430 kts 337°
2026-05-06 15:14 29.28955 -13.73514 23570 ft 432 kts 337°
2026-05-06 15:15 29.31811 -13.74638 24042 ft 436 kts 337°
2026-05-06 15:15 29.34626 -13.75745 24626 ft 436 kts 337°
2026-05-06 15:15 29.37524 -13.76887 25095 ft 439 kts 337°
2026-05-06 15:15 29.40290 -13.77978 25600 ft 441 kts 337°
2026-05-06 15:16 29.43195 -13.79125 26028 ft 444 kts 337°
2026-05-06 15:16 29.46101 -13.80273 26483 ft 447 kts 337°
2026-05-06 15:16 29.49070 -13.81447 26913 ft 449 kts 337°
2026-05-06 15:16 29.52013 -13.82611 27357 ft 452 kts 337°
2026-05-06 15:17 29.55018 -13.83801 27838 ft 453 kts 337°
2026-05-06 15:17 29.57805 -13.84904 28242 ft 455 kts 337°
2026-05-06 15:17 29.60824 -13.86102 28625 ft 457 kts 337°
2026-05-06 15:17 29.62726 -13.86856 28894 ft 458 kts 337°
2026-05-06 15:19 29.63662 -13.87227 29040 ft 458 kts 338°
2026-05-06 15:19 29.65830 -13.88087 29513 ft 455 kts 337°
2026-05-06 15:19 29.67508 -13.88752 29883 ft 453 kts 338°
2026-05-06 15:20 29.68539 -13.89160 30100 ft 451 kts 338°
2026-05-06 15:21 29.70059 -13.89762 30379 ft 450 kts 338°
2026-05-06 15:21 29.71411 -13.90298 30593 ft 449 kts 338°
2026-05-06 15:21 29.73503 -13.91128 30927 ft 448 kts 338°
2026-05-06 15:22 29.76900 -13.92478 31436 ft 447 kts 338°
2026-05-06 15:22 29.79311 -13.93437 31822 ft 445 kts 338°
2026-05-06 15:22 29.82240 -13.94604 32199 ft 445 kts 338°
2026-05-06 15:22 29.84628 -13.95556 32494 ft 445 kts 338°
2026-05-06 15:23 29.86952 -13.96484 32720 ft 447 kts 338°
2026-05-06 15:23 29.89737 -13.97596 32989 ft 448 kts 338°
2026-05-06 15:23 29.92662 -13.98765 33358 ft 447 kts 339°
2026-05-06 15:24 29.95597 -13.99936 33721 ft 446 kts 339°
2026-05-06 15:24 29.98517 -14.01102 34062 ft 445 kts 339°
2026-05-06 15:24 30.01441 -14.02270 34380 ft 445 kts 339°
2026-05-06 15:24 30.04351 -14.03433 34697 ft 444 kts 339°
2026-05-06 15:25 30.07263 -14.04598 35060 ft 442 kts 338°
2026-05-06 15:25 30.10053 -14.05715 35383 ft 440 kts 338°
2026-05-06 15:25 30.12947 -14.06875 35692 ft 439 kts 338°
2026-05-06 15:25 30.15833 -14.08032 35957 ft 438 kts 338°
2026-05-06 15:26 30.18630 -14.09155 35910 ft 437 kts 338°
2026-05-06 15:26 30.24371 -14.11463 36013 ft 441 kts 338°
2026-05-06 15:27 30.30132 -14.13781 36008 ft 438 kts 338°
2026-05-06 15:27 30.35886 -14.16099 36010 ft 437 kts 338°
2026-05-06 15:28 30.41636 -14.18417 36003 ft 437 kts 338°
2026-05-06 15:28 30.47362 -14.20728 36003 ft 436 kts 338°
2026-05-06 15:29 30.53106 -14.23049 36007 ft 436 kts 338°
2026-05-06 15:29 30.58849 -14.25373 36005 ft 436 kts 338°
2026-05-06 15:30 30.64496 -14.27833 36006 ft 434 kts 334°
2026-05-06 15:30 30.69937 -14.30687 36013 ft 432 kts 332°
2026-05-06 15:31 30.75403 -14.33675 36009 ft 431 kts 332°
2026-05-06 15:31 30.80855 -14.36634 36010 ft 431 kts 333°
2026-05-06 15:32 30.87663 -14.40755 36014 ft 425 kts 322°
2026-05-06 15:32 30.91690 -14.45232 36016 ft 423 kts 307°
2026-05-06 15:33 30.95023 -14.50985 36016 ft 424 kts 301°
2026-05-06 15:33 30.98022 -14.56842 36020 ft 423 kts 301°
2026-05-06 15:34 31.01005 -14.62739 36018 ft 423 kts 301°
2026-05-06 15:34 31.04006 -14.68632 36023 ft 424 kts 301°
2026-05-06 15:35 31.07016 -14.74513 36024 ft 423 kts 301°
2026-05-06 15:35 31.10039 -14.80409 36024 ft 423 kts 301°
2026-05-06 15:36 31.13057 -14.86297 36024 ft 423 kts 301°
2026-05-06 15:36 31.16058 -14.92161 36026 ft 421 kts 302°
2026-05-06 15:37 31.19041 -14.97997 36028 ft 423 kts 302°
2026-05-06 15:37 31.22060 -15.03910 36029 ft 424 kts 302°
2026-05-06 15:38 31.25032 -15.09743 36030 ft 422 kts 302°
2026-05-06 15:38 31.26543 -15.12712 36261 ft 424 kts 302°
2026-05-06 15:38 31.28058 -15.15689 35726 ft 426 kts 302°
2026-05-06 15:39 31.29554 -15.18632 35195 ft 423 kts 302°
2026-05-06 15:39 31.31043 -15.21565 34656 ft 419 kts 302°
2026-05-06 15:39 31.32481 -15.24401 34133 ft 418 kts 302°
2026-05-06 15:39 31.33891 -15.27181 33620 ft 419 kts 302°
2026-05-06 15:40 31.35324 -15.30007 33100 ft 422 kts 302°
2026-05-06 15:40 31.36543 -15.32412 32662 ft 424 kts 302°
2026-05-06 15:40 31.38141 -15.35569 32089 ft 424 kts 302°
2026-05-06 15:41 31.39535 -15.38329 31586 ft 424 kts 302°
2026-05-06 15:41 31.41035 -15.41300 31045 ft 424 kts 303°
2026-05-06 15:41 31.42519 -15.44239 30515 ft 427 kts 303°
2026-05-06 15:41 31.44039 -15.47253 29973 ft 427 kts 303°
2026-05-06 15:42 31.45533 -15.50216 29416 ft 428 kts 303°
2026-05-06 15:42 31.47052 -15.53140 28869 ft 430 kts 305°
2026-05-06 15:42 31.48768 -15.55954 28318 ft 431 kts 309°
2026-05-06 15:42 31.50558 -15.58593 27695 ft 434 kts 311°
2026-05-06 15:43 31.52460 -15.61286 27042 ft 435 kts 311°
2026-05-06 15:43 31.54297 -15.63867 26419 ft 436 kts 311°
2026-05-06 15:43 31.56230 -15.66600 25764 ft 438 kts 310°
2026-05-06 15:43 31.58176 -15.69383 25104 ft 440 kts 310°
2026-05-06 15:44 31.60085 -15.72148 24460 ft 437 kts 310°
2026-05-06 15:44 31.61969 -15.74901 23821 ft 432 kts 310°
2026-05-06 15:44 31.63819 -15.77624 23184 ft 427 kts 309°
2026-05-06 15:44 31.65652 -15.80337 22560 ft 424 kts 309°
2026-05-06 15:45 31.67488 -15.83064 21936 ft 421 kts 309°
2026-05-06 15:45 31.69296 -15.85757 21314 ft 417 kts 309°
2026-05-06 15:45 31.71014 -15.88323 20712 ft 413 kts 309°
2026-05-06 15:45 31.72746 -15.90913 20102 ft 410 kts 309°
2026-05-06 15:46 31.74453 -15.93467 19500 ft 407 kts 309°
2026-05-06 15:46 31.76197 -15.96079 18881 ft 405 kts 309°
2026-05-06 15:46 31.77883 -15.98606 18282 ft 402 kts 309°
2026-05-06 15:46 31.79561 -16.01124 17685 ft 399 kts 309°
2026-05-06 15:47 31.81236 -16.03639 17093 ft 396 kts 309°
2026-05-06 15:47 31.82885 -16.06117 16503 ft 392 kts 309°
2026-05-06 15:47 31.84555 -16.08628 15898 ft 388 kts 309°
2026-05-06 15:47 31.86209 -16.11114 15298 ft 386 kts 309°
2026-05-06 15:48 31.87845 -16.13574 14690 ft 382 kts 309°
2026-05-06 15:48 31.89462 -16.16008 14082 ft 379 kts 309°
2026-05-06 15:48 31.91035 -16.18378 13487 ft 376 kts 309°
2026-05-06 15:48 31.92547 -16.20657 12908 ft 373 kts 309°
2026-05-06 15:49 31.94109 -16.23012 12306 ft 370 kts 309°
2026-05-06 15:49 31.95664 -16.25357 11703 ft 367 kts 309°
2026-05-06 15:49 31.97193 -16.27664 11108 ft 366 kts 309°
2026-05-06 15:49 31.98712 -16.29960 10509 ft 363 kts 309°
2026-05-06 15:50 32.00191 -16.32195 10006 ft 359 kts 309°
2026-05-06 15:50 32.01740 -16.34537 9514 ft 360 kts 309°
2026-05-06 15:50 32.03264 -16.36844 9026 ft 357 kts 309°
2026-05-06 15:50 32.04781 -16.39140 8532 ft 355 kts 309°
2026-05-06 15:51 32.06258 -16.41377 8049 ft 352 kts 309°
2026-05-06 15:51 32.07717 -16.43589 7567 ft 350 kts 309°
2026-05-06 15:51 32.09192 -16.45826 7073 ft 348 kts 309°
2026-05-06 15:51 32.10684 -16.48091 6574 ft 346 kts 309°
2026-05-06 15:52 32.12154 -16.50322 6078 ft 345 kts 309°
2026-05-06 15:52 32.13608 -16.52533 5580 ft 341 kts 309°
2026-05-06 15:52 32.15040 -16.54713 5037 ft 329 kts 309°
2026-05-06 15:52 32.16394 -16.56779 4561 ft 312 kts 309°
2026-05-06 15:53 32.17693 -16.58761 4083 ft 300 kts 310°
2026-05-06 15:53 32.18970 -16.60707 3592 ft 299 kts 310°
2026-05-06 15:53 32.20235 -16.62630 3103 ft 299 kts 310°
2026-05-06 15:53 32.21500 -16.64559 2950 ft 287 kts 310°
2026-05-06 15:54 32.22680 -16.66366 2954 ft 270 kts 310°
2026-05-06 15:54 32.23789 -16.68064 2958 ft 255 kts 310°
2026-05-06 15:54 32.24841 -16.69677 2959 ft 240 kts 310°
2026-05-06 15:54 32.25850 -16.71217 2965 ft 237 kts 310°
2026-05-06 15:55 32.26863 -16.72759 2962 ft 237 kts 310°
2026-05-06 15:55 32.27951 -16.74201 2956 ft 234 kts 327°
2026-05-06 15:55 32.29411 -16.75014 2972 ft 232 kts 345°
2026-05-06 15:55 32.30957 -16.75566 2959 ft 232 kts 343°
2026-05-06 15:56 32.32470 -16.76222 2963 ft 232 kts 340°
2026-05-06 15:56 32.33960 -16.76961 2960 ft 232 kts 338°
2026-05-06 15:56 32.35435 -16.77729 2960 ft 231 kts 338°
2026-05-06 15:56 32.36912 -16.78501 2966 ft 233 kts 338°
2026-05-06 15:57 32.38397 -16.79275 2961 ft 226 kts 339°
2026-05-06 15:57 32.39787 -16.79998 2970 ft 211 kts 338°
2026-05-06 15:57 32.41089 -16.80676 2974 ft 196 kts 339°
2026-05-06 15:57 32.42277 -16.81295 2969 ft 179 kts 339°
2026-05-06 15:58 32.43374 -16.81869 2968 ft 160 kts 339°
2026-05-06 15:58 32.44308 -16.82358 2977 ft 148 kts 339°
2026-05-06 15:58 32.45262 -16.82848 2969 ft 145 kts 341°
2026-05-06 15:58 32.46239 -16.83043 2969 ft 143 kts 10°
2026-05-06 15:59 32.47211 -16.82758 2969 ft 144 kts 13°
2026-05-06 15:59 32.48198 -16.82558 2963 ft 143 kts
2026-05-06 15:59 32.49153 -16.82405 2776 ft 135 kts 10°
2026-05-06 15:59 32.50095 -16.82234 2341 ft 138 kts 11°
2026-05-06 16:00 32.51045 -16.82054 1978 ft 136 kts 11°
2026-05-06 16:00 32.51975 -16.81882 1974 ft 137 kts 11°
2026-05-06 16:00 32.52923 -16.81706 1968 ft 137 kts 11°
2026-05-06 16:00 32.53884 -16.81527 1975 ft 139 kts 11°
2026-05-06 16:01 32.54835 -16.81350 1974 ft 137 kts 11°
2026-05-06 16:01 32.55789 -16.81172 1976 ft 138 kts 10°
2026-05-06 16:01 32.56739 -16.80995 1975 ft 139 kts 10°
2026-05-06 16:01 32.57664 -16.80821 1981 ft 141 kts 10°
2026-05-06 16:02 32.58629 -16.80641 1980 ft 141 kts 10°
2026-05-06 16:02 32.59602 -16.80460 1979 ft 140 kts 10°
2026-05-06 16:02 32.60562 -16.80339 1981 ft 140 kts
2026-05-06 16:02 32.61548 -16.80372 1932 ft 139 kts 359°
2026-05-06 16:03 32.62461 -16.80444 1622 ft 143 kts 359°
2026-05-06 16:03 32.63433 -16.80517 1393 ft 138 kts 359°
2026-05-06 16:03 32.64390 -16.80563 1155 ft 137 kts
2026-05-06 16:03 32.65339 -16.80546 921 ft 137 kts
2026-05-06 16:04 32.66285 -16.80422 712 ft 135 kts 12°
2026-05-06 16:04 32.67172 -16.80076 505 ft 137 kts 21°
2026-05-06 16:04 32.68002 -16.79506 423 ft 137 kts 36°
2026-05-06 16:04 32.68696 -16.78716 243 ft 139 kts 40°
2026-05-06 16:05 32.69363 -16.77936 191 ft 122 kts 41°
2026-05-06 16:05 32.69824 -16.77408 213 ft 62 kts 43°
2026-05-06 16:05 32.70054 -16.77138 197 ft 38 kts 45°
2026-05-06 16:05 32.70231 -16.76936 184 ft 32 kts 43°
2026-05-06 16:06 32.70372 -16.76809 184 ft 11 kts 22°
2026-05-06 16:06 32.70340 -16.76796 178 ft 10 kts 221°
2026-05-06 16:06 32.70299 -16.76857 182 ft 12 kts 230°
2026-05-06 16:06 32.70199 -16.76972 186 ft 27 kts 222°
2026-05-06 16:07 32.70050 -16.77138 196 ft 18 kts 225°
2026-05-06 16:07 32.69931 -16.77175 188 ft 22 kts 178°
2026-05-06 16:07 32.69793 -16.77230 178 ft 20 kts 226°
2026-05-06 16:07 32.69711 -16.77333 183 ft 14 kts 227°
2026-05-06 16:08 32.69645 -16.77413 186 ft 12 kts 226°
2026-05-06 16:08 32.69592 -16.77478 187 ft 9 kts 226°
2026-05-06 16:08 32.69552 -16.77528 188 ft 6 kts 227°
2026-05-06 16:08 32.69535 -16.77548 188 ft 3 kts 228°
2026-05-06 16:09 32.69510 -16.77558 185 ft 6 kts 161°
2026-05-06 16:09 32.69484 -16.77537 178 ft 6 kts 137°
2026-05-06 16:09 32.69466 -16.77519 173 ft 2 kts 137°
2026-05-06 16:09 32.69465 -16.77517 173 ft 0 kts 137°